Location: Marysville Observatory
(48.1092°N, 122.1645°W)
Time: 04:08:43
(UTC-07:00)

Daily predictions for brighter satellites

Satellite Brightness Start Highest point End
(mag) Time Altitude Azimuth Time Altitude Azimuth Time Altitude Azimuth
Cosmos 1953 2.7 00:03:09 10° N 00:07:04 49° ENE 00:07:49 43° ESE
SL-19 R/B 4.5 00:05:28 10° NNE 00:11:40 67° ESE 00:14:12 36° S
Cosmos 2333 Rocket 2.8 00:08:06 10° NW 00:13:30 45° WSW 00:15:37 32° SSW
COSMOS 2428 4.0 00:11:39 10° NW 00:16:22 28° WSW 00:18:36 21° SW
SL-16 R/B 2.7 00:14:03 10° NNW 00:19:39 56° ENE 00:22:35 27° SE
Cosmos 1707 3.6 00:24:37 36° ESE 00:24:52 36° E 00:28:29 10° NNE
H-2A R/B 2.3 00:24:33 44° SE 00:25:41 60° ENE 00:29:54 10° N
Cosmos 1818 4.2 00:26:14 36° SE 00:27:00 37° ESE 00:32:00 10° NE
Cosmos 1980 4.0 00:24:08 10° NW 00:29:39 54° WSW 00:31:29 38° SSW
Mayak -1.2 00:26:36 10° NNE 00:30:50 63° ESE 00:31:30 54° SE
Cosmos 2266 Rocket 4.0 00:28:59 10° N 00:35:22 85° E 00:38:07 37° SSE
Cosmos 2084 Rocket 3.3 00:32:57 10° NW 00:36:54 57° SW 00:36:57 57° SW
Iridium 4 Rocket 3.9 00:35:54 36° SSW 00:38:18 70° W 00:44:14 10° N
Cosmos 1238 Rocket 4.4 00:38:01 26° ESE 00:38:46 28° E 00:42:18 10° NNE
Cosmos 2297 Rocket 2.1 00:38:31 40° SSW 00:40:38 77° ESE 00:46:19 10° NNE
CZ-4C R/B 4.0 00:37:26 10° WNW 00:43:36 30° WSW 00:46:24 24° SSW
Cosmos 2227 Rocket 2.1 00:41:33 37° SSW 00:43:56 88° ESE 00:49:39 10° NNE
Meteor 2-11 Rocket 4.4 00:43:21 39° S 00:45:47 81° E 00:51:54 10° NNE
Cosmos 2237 Rocket 2.8 00:42:17 10° NW 00:47:39 43° WSW 00:49:16 35° SSW
ISS -3.1 00:46:54 10° WNW 00:50:06 53° NNE 00:51:14 33° ENE
Cosmos 1378 3.1 00:52:05 68° SW 00:52:25 75° W 00:56:11 10° N
Abrixas rocket 4.0 00:49:39 10° W 00:51:00 23° W 00:51:00 23° W
Cosmos 1825 Rocket 4.2 00:52:22 38° ESE 00:53:07 42° E 00:57:19 10° NNE
Cosmos 2082 3.6 00:54:44 39° SSW 00:56:59 86° ESE 01:02:46 10° NNE
Cosmos 2056 Rocket 4.2 00:52:51 10° NNW 00:57:48 46° ENE 01:00:23 25° ESE
Cosmos 923 Rocket 3.9 01:03:59 44° SSW 01:05:42 87° ESE 01:10:59 10° NNE
Cosmos 1680 Rocket 3.5 01:05:38 47° S 01:07:05 71° ESE 01:12:18 10° NNE
Cosmos 1624 Rocket 4.4 01:02:47 10° NNW 01:08:04 59° ENE 01:10:34 30° SE
Cosmos 2112 Rocket 4.0 01:08:31 46° SSE 01:09:53 65° ESE 01:15:02 10° NNE
Cosmos 1400 Rocket 2.9 01:10:53 56° SE 01:11:24 63° E 01:15:31 10° NNE
COSMOS 2455 3.0 01:13:45 27° SW 01:17:10 70° NW 01:23:13 10° NNE
ERBS 3.8 01:14:27 10° WNW 01:16:18 27° W 01:16:18 27° W
ALOS 2 3.6 01:17:40 31° WSW 01:18:18 32° W 01:22:16 10° NNW
Cosmos 1674 4.3 01:18:40 22° E 01:19:08 22° E 01:22:05 10° NE
CZ-4B R/B 3.8 01:14:17 10° N 01:19:16 62° WNW 01:21:14 36° SW
Cosmos 1244 Rocket 4.5 01:14:35 10° N 01:20:54 85° E 01:23:40 37° SSE
ADEOS Rocket 2.8 01:15:31 10° N 01:21:05 70° WNW 01:23:19 36° SW
JB-3 4.3 01:18:50 10° NNE 01:23:01 83° WNW 01:23:42 61° SSW
NOSS 3-1 (C) 4.3 01:27:45 27° SE 01:29:11 30° ESE 01:34:31 10° NE
CZ-4B R/B 3.7 01:27:51 15° E 01:29:20 19° ENE 01:31:50 10° NNE
Cosmos 1470 4.4 01:27:46 10° NW 01:30:47 22° W 01:31:04 21° W
deb Chang Zheng 4 3.7 01:28:58 10° N 01:33:15 65° WNW 01:34:20 47° SW
Cosmos 1953 Rocket 3.4 01:40:29 56° SSW 01:41:22 88° W 01:45:44 10° N
Cosmos 1953 4.4 01:40:45 10° NW 01:43:03 15° W 01:43:32 15° W
Cosmos 1315 Rocket 2.8 01:44:10 59° SSE 01:44:43 68° E 01:48:39 10° NNE
S3M 4.1 01:44:57 33° SSE 01:47:45 67° E 01:53:58 10° NNE
USA 229 DEB 3.7 01:44:50 35° SSW 01:47:49 67° SE 01:54:42 10° NE
USA 229 3.7 01:44:57 35° SSW 01:47:55 67° SE 01:54:48 10° NE
Cosmos-2242 2.9 01:44:42 10° NNW 01:48:59 74° W 01:49:51 54° SSW
NOSS 3-1 (A) 4.5 01:47:39 24° SE 01:49:27 29° ESE 01:54:47 10° NE
Resurs 1-4 Rocket 4.4 01:48:06 10° NE 01:50:59 15° E 01:53:52 10° ESE
Cosmos 1758 Rocket 3.9 01:50:16 44° SW 01:51:25 59° WNW 01:55:53 10° N
Meteor 1-24 Rocket 3.7 01:49:22 39° S 01:51:39 87° E 01:57:37 10° NNE
Cosmos 1908 3.2 01:50:18 10° N 01:54:08 78° E 01:54:48 58° SSE
SL-24 R/B 3.9 01:51:06 10° NNE 01:54:42 57° E 01:55:14 51° SE
Meteor 2-5 Rocket 4.0 01:52:40 34° SW 01:55:09 62° WNW 02:01:03 10° N
KORONAS-FOTON 4.4 01:55:29 39° SE 01:56:11 44° E 01:59:50 10° NNE
SL-24 R/B 4.3 01:53:18 10° N 01:58:16 73° WNW 01:59:38 44° SW
Cosmos 1689 Rocket 3.8 01:58:08 26° ESE 01:59:00 30° ENE 02:01:49 10° N
Cosmos 972 Rocket 4.1 01:58:42 36° SW 02:00:49 67° WNW 02:05:51 10° NNE
H-2A R/B 4.0 02:01:40 16° W 02:02:02 16° W 02:04:41 10° NW
Cosmos 1346 Rocket 2.6 01:59:00 10° NNW 02:02:53 87° W 02:03:34 59° S
Cosmos 1943 3.4 01:57:27 10° NNW 02:03:10 70° ENE 02:07:25 18° SE
SL-16 R/B 3.3 01:58:45 10° NW 02:03:26 27° WSW 02:04:26 25° WSW
Cosmos 1300 4.1 02:01:07 10° N 02:04:37 33° ENE 02:06:26 21° ESE
DELTA 2 R/B (1) 4.2 02:05:38 34° SSE 02:05:38 34° SSE 02:10:01 10° ESE
Landsat 5 3.7 02:03:31 36° SE 02:05:03 64° ENE 02:09:03 10° N
Mayak 1.1 02:03:21 10° NNW 02:05:59 16° WNW 02:08:07 12° W
Cosmos 2263 Rocket 3.1 02:04:28 26° SSE 02:06:49 37° ESE 02:12:01 10° NE
MOS 1 Rocket 3.6 02:02:29 10° NNE 02:07:58 90° ENE 02:10:14 37° SSW
Cosmos 1726 2.0 02:06:44 10° N 02:10:26 81° E 02:11:08 56° SSE
Cosmos 1818 4.4 02:06:50 19° WSW 02:10:31 46° NW 02:15:47 10° NNE
Meteor 2-13 Rocket 4.4 02:05:33 10° N 02:11:39 89° ENE 02:14:52 30° S
Meteor 2-10 4.0 02:07:17 10° N 02:12:21 77° ENE 02:14:51 30° SSE
GEOS 3 Rocket 4.1 02:12:09 10° NE 02:17:20 49° ESE 02:19:20 33° S
Cosmos 1238 Rocket 4.3 02:17:01 26° WSW 02:18:25 31° WNW 02:22:01 10° NNW
Cosmos 2297 Rocket 4.0 02:20:48 10° W 02:25:19 24° NW 02:29:51 10° N
PSLV R/B 3.7 02:21:33 10° N 02:25:51 65° WNW 02:27:23 38° SW
ISS -1.3 02:23:27 10° WNW 02:23:50 13° WNW 02:23:50 13° WNW
Cosmos 2227 Rocket 4.2 02:24:32 10° W 02:28:47 21° NW 02:33:04 10° N
Cosmos 1553 Rocket 4.3 02:25:43 29° SW 02:28:48 57° WNW 02:34:53 10° N
CZ-4C R/B 3.5 02:29:56 38° W 02:29:56 38° W 02:33:01 10° NNW
Cosmos 1603 4.1 02:29:48 10° NW 02:35:08 43° WSW 02:37:12 31° SSW
SL-14 R/B 3.6 02:34:30 35° SSE 02:35:52 56° E 02:39:39 10° NNE
USA 234 4.3 02:30:12 10° E 02:36:24 47° NNE 02:42:36 10° WNW
Cosmos 2221 2.7 02:32:01 10° N 02:36:26 70° E 02:38:48 26° SSE
Cosmos 1452 Rocket 3.5 02:32:35 10° NNW 02:37:51 67° WSW 02:40:37 28° S
Cosmos 1437 3.9 02:36:01 10° NNW 02:38:33 29° W 02:38:33 29° W
Cosmos 158 Rocket 4.0 02:45:38 30° SSW 02:48:23 89° ESE 02:53:49 10° NNE
Cosmos 1048 Rocket 4.4 02:46:50 25° S 02:49:40 54° ESE 02:54:48 10° NNE
TELKOM 3 3.2 02:49:48 69° SW 02:50:03 77° SSE 02:52:29 10° ENE
Cosmos 1626 2.9 02:52:30 24° SSE 02:54:19 45° E 02:57:55 10° NNE
Cosmos 1674 3.9 02:53:32 24° WSW 02:54:34 28° WNW 02:57:52 10° NNW
CZ-4B R/B 2.3 03:01:17 31° WSW 03:01:41 32° W 03:04:48 10° NNW
BREEZE-M R/B 4.3 02:57:19 10° WNW 03:02:57 64° SSW 03:11:49 10° SE
Cosmos 1842 Rocket 4.5 03:00:06 10° NNW 03:04:02 32° W 03:05:25 26° SW
Meteor 1-21 Rocket 4.4 03:01:41 25° SSW 03:05:13 69° WNW 03:11:10 10° N
SL-16 R/B 2.5 02:59:48 13° SSE 03:05:29 86° WSW 03:11:45 10° NNW
Cosmos 1340 3.2 03:02:12 10° NNW 03:05:47 42° W 03:06:54 32° SW
Genesis I 3.7 03:04:45 29° S 03:06:26 50° ESE 03:10:22 10° NE
Cosmos 1420 Rocket 4.4 03:02:12 10° NW 03:07:08 44° WSW 03:09:46 25° SSW
CZ-2D R/B 2.4 03:04:51 10° NNE 03:10:03 62° ESE 03:13:52 18° S
Cosmos 921 Rocket 3.1 03:06:52 10° NNW 03:11:10 77° ENE 03:15:31 10° SSE
Cosmos 2315 Rocket 4.0 03:08:31 23° SSW 03:12:35 71° W 03:18:51 10° N
CBERS-1 4.0 03:12:54 10° NNE 03:18:03 89° WNW 03:21:33 21° SSW
AQUA 3.8 03:14:13 10° NNE 03:19:01 86° ESE 03:22:13 21° SSW
Aureole 1 Rocket 2.6 03:17:57 31° WSW 03:19:06 51° WNW 03:22:02 10° NNE
NOSS 3-1 (C) 3.7 03:15:08 18° WSW 03:19:30 62° NW 03:26:10 10° NE
OPS 6432 4.2 03:19:05 30° SSW 03:20:37 79° SE 03:23:42 10° NE
SeaSat 1 2.4 03:15:52 10° SSE 03:20:47 77° WSW 03:25:46 10° NNW
IRS-1D 3.8 03:21:27 10° NNE 03:26:49 72° ESE 03:31:10 16° S
H-2A R/B 2.6 03:23:33 10° NNE 03:28:04 83° WNW 03:31:03 20° SSW
Cosmos 1703 3.7 03:27:16 16° S 03:30:17 61° E 03:34:13 10° NNE
Cosmos 1689 Rocket 4.1 03:30:42 16° W 03:30:48 16° W 03:32:48 10° NW
Resurs 1-4 Rocket 2.1 03:26:11 10° NNE 03:31:31 87° WNW 03:35:40 17° SSW
Cosmos 1110 Rocket 3.9 03:26:37 10° NNW 03:31:51 86° WSW 03:37:02 10° SSE
Cosmos 1844 Rocket 3.7 03:27:19 11° S 03:32:16 40° ESE 03:37:32 10° NE
ARIANE 5 R/B 2.9 03:27:41 10° NNE 03:32:45 61° ESE 03:37:17 13° S
Cosmos 1408 Rocket 3.9 03:32:05 14° S 03:35:44 64° E 03:40:04 10° NNE
IRS-P3 4.3 03:31:33 10° N 03:36:50 65° WNW 03:40:50 18° SSW
NPP 3.9 03:31:43 10° N 03:37:02 59° WNW 03:41:02 18° SW
Cosmos 1151 Rocket 4.2 03:33:46 10° N 03:37:59 44° ENE 03:42:09 10° SSE
UNKNOWN OBJECT B 4.2 03:35:03 10° NNE 03:38:25 32° E 03:41:49 10° SSE
NOSS 3-1 (A) 3.7 03:35:04 16° WSW 03:39:48 64° NW 03:46:30 10° NE
Cosmos 1300 4.3 03:37:14 10° NW 03:40:06 20° W 03:41:24 17° WSW
Helios 1A Rocket 4.1 03:37:25 10° NNE 03:41:16 38° E 03:45:04 10° SSE
Okean 3 Rocket 3.8 03:38:43 19° SSW 03:41:44 56° WNW 03:46:08 10° N
NOSS 2-3 (C) 4.2 03:38:50 18° SSW 03:42:15 61° SE 03:47:40 10° NE
USA 267 3.5 03:37:04 10° ENE 03:43:32 58° SE 03:48:58 15° SW
Cosmos 494 Rocket 4.3 03:39:14 14° S 03:43:38 64° ESE 03:48:49 10° NNE
UNK 4.3 03:40:54 17° SSW 03:44:03 40° W 03:48:27 10° NNW
EP 2 4.4 03:43:38 26° SSW 03:44:55 65° SE 03:47:37 10° NE
SL-08 R/B 4.0 03:44:02 16° SSW 03:47:31 38° W 03:52:08 10° NNW
Cosmos 2058 3.4 03:43:48 10° S 03:47:55 59° E 03:52:05 10° NNE
CZ-2D R/B 4.4 03:45:06 10° NNE 03:49:26 48° E 03:53:44 10° S
Meteor 2-2 Rocket 4.4 03:45:00 10° NNW 03:50:40 57° W 03:56:14 10° S
Cosmos 2263 Rocket 3.0 03:46:09 14° WSW 03:50:42 42° NW 03:56:07 10° NNE
Cosmos 2074 Rocket 4.1 03:44:39 10° NNW 03:50:48 64° W 03:56:55 10° S
Cosmos 1455 2.1 03:47:04 10° NNW 03:50:50 67° W 03:54:26 11° S
Meteor 1-11 4.2 03:46:38 13° SSW 03:51:38 83° W 03:57:20 10° N
ATLAS 3B R/B 3.9 03:45:33 10° NW 03:51:58 44° NE 03:58:13 10° ESE
ADEOS II 3.4 03:48:04 10° NNE 03:52:57 37° E 03:57:47 10° SSE
Cosmos 2184 Rocket 4.1 03:48:58 10° NNW 03:55:16 62° W 04:01:32 10° S
Nadezhda 1 Rocket 4.1 03:49:55 10° S 03:56:08 86° E 04:02:30 10° N
Cosmos 2154 Rocket 4.1 03:51:15 10° N 03:57:34 85° E 04:03:54 10° S
Cosmos 1607 4.3 03:53:46 10° NW 03:59:51 45° WSW 04:05:47 10° S
COSMOS 2406 3.3 04:00:19 10° NNW 04:06:09 89° ENE 04:11:56 10° SSE
Cosmos 1743 Rocket 3.9 04:01:55 10° S 04:06:12 66° E 04:10:30 10° NNE
Cosmos 1331 Rocket 4.3 04:08:51 10° NW 04:13:44 44° WSW 04:18:36 10° S
Cosmos 2151 3.0 04:12:04 10° S 04:16:22 84° W 04:20:43 10° N
Cosmos 1302 Rocket 4.0 04:12:45 10° NNW 04:18:02 71° WSW 04:23:17 10° SSE
USA 234 3.3 04:12:31 10° ESE 04:19:05 88° NE 04:25:40 10° NW
Cosmos 2082 Rocket 4.2 04:18:03 10° NNW 04:23:16 34° NE 04:28:26 10° ESE
SAR-Lupe-2 4.4 04:23:06 10° SSW 04:26:19 31° W 04:29:33 10° NNW
BREEZE-M DEB (TANK) 4.1 04:20:00 10° SW 04:26:37 36° SSE 04:29:38 10° E
ADEOS 3.6 04:21:22 10° NNE 04:26:38 84° WNW 04:31:51 10° SSW
Cosmos 2251 Rocket 3.7 04:22:42 10° SSW 04:28:05 82° ESE 04:33:29 10° NNE
Cosmos 1626 4.2 04:27:40 10° WSW 04:29:55 15° WNW 04:32:12 10° NNW
SL-24 DEB 4.4 04:25:12 10° S 04:29:59 87° E 04:34:47 10° N
USA 238 DEB 4.0 04:23:17 10° NW 04:30:25 80° NE 04:37:40 10° SE
USA 238 4.0 04:23:23 10° NW 04:30:32 80° NE 04:37:47 10° SE
Cosmos 220 Rocket 4.2 04:28:10 10° SSW 04:32:30 72° ESE 04:36:48 10° NNE
Geosat 4.4 04:28:05 10° NNE 04:33:01 56° NW 04:37:55 10° SW
NOSS 2-3 (D) 4.2 04:29:08 10° SW 04:33:50 64° NW 04:39:30 10° NE
Cosmos 1328 Rocket 4.4 04:33:41 10° NNW 04:37:30 31° W 04:41:19 10° SSW
Cosmos 405 Rocket 2.8 04:35:53 10° NNW 04:39:43 60° W 04:43:26 10° S
